Cairns, Australia

7:17 PM AEST on February 21, 2017 (GMT +1000)
Cairns International

Weather History for YBCS - December, 2013

Change the Weather History Date:

Monday, December 2, 2013

  Actual Average Record
Temperature  
Mean Temperature 80 °F -  
Max Temperature 84 °F 88 °F 96 °F (2007)
Min Temperature 75 °F 74 °F 64 °F (2016)
Cooling Degree Days 14    
Growing Degree Days 30 (Base 50)    
Moisture  
Dew Point 70 °F    
Average Humidity 75    
Maximum Humidity 94    
Minimum Humidity 53    
Precipitation  
Precipitation 0.01 in 0.27 in - ()
Sea Level Pressure  
Sea Level Pressure 29.92 in    
Wind  
Wind Speed 11 mph ()    
Max Wind Speed 24 mph    
Max Gust Speed 31 mph    
Visibility 6.7 miles    
Events Rain    
Averages and records for this station are not official NWS values.
T = Trace of Precipitation, MM = Missing Value Source: Averaged Metar Reports

Daily Weather History Graph

Daily Weather History Graph

Search for Another Location

Airport or City:

Trip Planner

Search our weather history database for the weather conditions in past years. The results will help you decide how hot, cold, wet, or windy it might be!

Date:

Astronomy

Dec. 02, 2013 Rise Set
Actual Time 5:34 AM AEST 6:38 PM AEST
Civil Twilight 5:10 AM AEST 7:02 PM AEST
Nautical Twilight 4:42 AM AEST 7:30 PM AEST
Astronomical Twilight 4:14 AM AEST 7:58 PM AEST
Moon 4:36 AM AEST (12/2) 5:50 PM AEST (12/2)
Length of Visible Light 13h 51m
Length of Day
13h 03m
Waning Crescent, 1% of the Moon is Illuminated
Dec 2
Waning Crescent
Dec 3
New
Dec 10
First Quarter
Dec 17
Full
Dec 25
Last Quarter

Hourly Weather History & Observations

Time (AEST) Temp. Heat Index Dew Point Humidity Pressure Visibility Wind Dir Wind Speed Gust Speed Precip Events Conditions
12:00 AM 78 °F - 75 °F 86% 29.96 in - SSE 8.1 mph - -   Overcast
12:00 AM 78.8 °F - 75.2 °F 89% 29.95 in 5.6 mi SSE 8.1 mph - N/A Rain Light Rain Showers
12:30 AM 78.8 °F - 73.4 °F 83% 29.95 in 6.2 mi South 10.4 mph - N/A   Mostly Cloudy
1:00 AM 78 °F - 73 °F 82% 29.95 in - South 10.4 mph - -  
1:00 AM 78.8 °F - 73.4 °F 83% 29.92 in 6.2 mi South 10.4 mph - N/A   Scattered Clouds
1:30 AM 78.8 °F - 71.6 °F 78% 29.92 in 6.2 mi South 9.2 mph - N/A   Scattered Clouds
2:00 AM 78.8 °F - 73.4 °F 83% 29.92 in 6.2 mi SSE 9.2 mph - N/A   Scattered Clouds
2:30 AM 78.8 °F - 73.4 °F 83% 29.89 in 6.2 mi South 9.2 mph - N/A   Scattered Clouds
3:00 AM 77 °F - 74 °F 87% 29.91 in - South 12.7 mph - -   Overcast
3:00 AM 77.0 °F - 73.4 °F 89% 29.89 in 6.2 mi South 12.7 mph - N/A   Scattered Clouds
3:30 AM 77.0 °F - 73.4 °F 89% 29.89 in 6.2 mi South 10.4 mph - N/A   Scattered Clouds
4:00 AM 77 °F - 74 °F 87% 29.91 in - SSE 9.2 mph - -  
4:00 AM 77.0 °F - 73.4 °F 89% 29.89 in 6.2 mi SSE 9.2 mph - N/A Rain Light Rain Showers
4:30 AM 77.0 °F - 73.4 °F 89% 29.89 in 6.2 mi South 8.1 mph - N/A Rain Light Rain Showers
5:00 AM 77.0 °F - 73.4 °F 89% 29.89 in 6.2 mi SE 8.1 mph - N/A   Scattered Clouds
5:27 AM 77.0 °F - 75.2 °F 94% 29.92 in 3.7 mi SSE 9.2 mph - N/A Rain Rain Showers
5:30 AM 77.0 °F - 75.2 °F 94% 29.92 in 3.7 mi SSE 9.2 mph - N/A Rain Rain Showers
5:45 AM 77.0 °F - 75.2 °F 94% 29.92 in 6.2 mi South 8.1 mph - N/A   Mostly Cloudy
6:00 AM 78 °F - 74 °F 84% 29.93 in 12 mi SSE 8.1 mph - - Rain Light Rain Showers
6:00 AM 77.0 °F - 73.4 °F 89% 29.92 in 6.2 mi SSE 8.1 mph - N/A   Scattered Clouds
6:30 AM 78.8 °F - 73.4 °F 83% 29.92 in 6.2 mi South 9.2 mph - N/A   Scattered Clouds
7:00 AM 77 °F - 73 °F 85% 29.96 in - South 12.7 mph - -  
7:00 AM 77.0 °F - 73.4 °F 89% 29.95 in 6.2 mi South 12.7 mph - N/A   Mostly Cloudy
7:30 AM 78.8 °F - 73.4 °F 83% 29.95 in 6.2 mi South 11.5 mph - N/A   Mostly Cloudy
8:00 AM 78.8 °F - 73.4 °F 83% 29.98 in 6.2 mi South 11.5 mph - N/A   Mostly Cloudy
8:30 AM 78.8 °F - 73.4 °F 83% 29.98 in 6.2 mi South 13.8 mph - N/A Rain Light Rain Showers
9:00 AM 80 °F - 74 °F 78% 29.98 in 16 mi South 11.5 mph - - Rain Light Rain Showers
9:00 AM 80.6 °F 86.2 °F 75.2 °F 84% 29.98 in 6.2 mi South 11.5 mph - N/A   Mostly Cloudy
9:30 AM 78.8 °F - 75.2 °F 89% 29.95 in 6.2 mi South 10.4 mph - N/A   Mostly Cloudy
10:00 AM 80 °F - 75 °F 80% 29.97 in - South 15.0 mph - -  
10:00 AM 80.6 °F 86.2 °F 75.2 °F 84% 29.95 in 6.2 mi South 15.0 mph - N/A   Mostly Cloudy
10:28 AM 82.4 °F 87.2 °F 71.6 °F 70% 29.95 in 6.2 mi SE 23.0 mph - N/A   Mostly Cloudy
10:30 AM 82.4 °F 87.2 °F 71.6 °F 70% 29.95 in 6.2 mi SE 23.0 mph - N/A   Mostly Cloudy
10:54 AM 82.4 °F 86.3 °F 69.8 °F 66% 29.95 in 6.2 mi SE 19.6 mph 31.1 mph N/A   Mostly Cloudy
11:00 AM 82.4 °F 86.3 °F 69.8 °F 66% 29.92 in 6.2 mi SE 23.0 mph - N/A   Mostly Cloudy
11:30 AM 84.2 °F 89.6 °F 71.6 °F 66% 29.92 in 6.2 mi SE 21.9 mph - N/A   Mostly Cloudy
12:00 PM 83 °F - 70 °F 57% 29.92 in 16 mi SE 23.0 mph - -   Partly Cloudy
12:00 PM 84.2 °F 88.4 °F 69.8 °F 62% 29.92 in 6.2 mi SE 23.0 mph - N/A   Mostly Cloudy
12:30 PM 80.6 °F 84.6 °F 71.6 °F 74% 29.92 in 6.2 mi SE 24.2 mph - N/A   Mostly Cloudy
12:37 PM 78.8 °F - 71.6 °F 78% 29.92 in 6.2 mi SSE 21.9 mph - N/A   Mostly Cloudy
1:00 PM 81 °F - 71 °F 66% 29.91 in - SE 18.4 mph - -  
1:00 PM 80.6 °F 84.6 °F 71.6 °F 74% 29.89 in 6.2 mi SE 18.4 mph - N/A   Mostly Cloudy
1:29 PM 78.8 °F - 71.6 °F 78% 29.89 in 6.2 mi SSE 24.2 mph - N/A   Mostly Cloudy
2:00 PM 78.8 °F - 69.8 °F 74% 29.89 in 6.2 mi SE 18.4 mph - N/A   Mostly Cloudy
2:30 PM 80.6 °F 83.2 °F 68.0 °F 65% 29.89 in 6.2 mi SE 16.1 mph - N/A   Mostly Cloudy
3:00 PM 80 °F - 67 °F 55% 29.89 in 16 mi SE 18.4 mph - -   Mostly Cloudy
3:00 PM 80.6 °F 82.7 °F 66.2 °F 61% 29.89 in 6.2 mi SE 18.4 mph - N/A   Mostly Cloudy
3:30 PM 80.6 °F 82.7 °F 66.2 °F 61% 29.89 in 6.2 mi SE 19.6 mph - N/A   Mostly Cloudy
4:00 PM 80 °F - 66 °F 53% 29.90 in - SE 18.4 mph - -  
4:00 PM 80.6 °F 82.7 °F 66.2 °F 61% 29.89 in 6.2 mi SE 18.4 mph - N/A   Mostly Cloudy
4:30 PM 80.6 °F 82.7 °F 66.2 °F 61% 29.89 in 6.2 mi SSE 17.3 mph - N/A Rain Light Rain Showers
5:00 PM 80.6 °F 83.2 °F 68.0 °F 65% 29.89 in 6.2 mi SE 15.0 mph - N/A   Scattered Clouds
5:30 PM 80.6 °F 82.7 °F 66.2 °F 61% 29.89 in 6.2 mi SSE 16.1 mph - N/A   Scattered Clouds
6:00 PM 79 °F - 66 °F 55% 29.89 in - SE 15.0 mph - -  
6:00 PM 78.8 °F - 66.2 °F 65% 29.89 in 6.2 mi SE 15.0 mph - N/A   Scattered Clouds
6:30 PM 78.8 °F - 66.2 °F 65% 29.89 in 6.2 mi SE 12.7 mph - N/A   Scattered Clouds
7:00 PM 78 °F - 65 °F 56% 29.91 in - SSE 12.7 mph - -  
7:00 PM 78.8 °F - 66.2 °F 65% 29.89 in 6.2 mi SSE 12.7 mph - N/A   Scattered Clouds
7:30 PM 77.0 °F - 66.2 °F 69% 29.89 in 6.2 mi SSE 8.1 mph - N/A   Scattered Clouds
8:00 PM 75.2 °F - 66.2 °F 73% 29.89 in 6.2 mi South 8.1 mph - N/A   Partly Cloudy
8:30 PM 77.0 °F - 64.4 °F 65% 29.92 in 6.2 mi South 8.1 mph - N/A   Scattered Clouds
9:00 PM 76 °F - 65 °F 61% 29.92 in - South 8.1 mph - -  
9:00 PM 77.0 °F - 64.4 °F 65% 29.92 in 6.2 mi South 8.1 mph - N/A   Partly Cloudy
9:30 PM 77.0 °F - 64.4 °F 65% 29.92 in 6.2 mi South 8.1 mph - N/A   Partly Cloudy
10:00 PM 75 °F - 65 °F 65% 29.94 in - South 8.1 mph - -  
10:00 PM 75.2 °F - 66.2 °F 73% 29.92 in 6.2 mi South 8.1 mph - N/A   Partly Cloudy
10:30 PM 75.2 °F - 66.2 °F 73% 29.95 in 6.2 mi SSE 9.2 mph - N/A   Partly Cloudy
11:00 PM 75.2 °F - 66.2 °F 73% 29.95 in 6.2 mi SSE 9.2 mph - N/A   Partly Cloudy
11:30 PM 75.2 °F - 66.2 °F 73% 29.95 in 6.2 mi South 9.2 mph - N/A   Partly Cloudy